Location: Unspecified
(0.0000°N, 0.0000°E)
Time: 02:20:26
(UTC+00:00)

Envisat - Pass Details

Date: 21 February 2019
Orbit: 764 x 766 km, 98.2° (Epoch: 15 February)

Event Time Altitude Azimuth Distance (km) Brightness Sun altitude
Rises 19:40:45 0° 185° (S) 3,230 6.5 -21.4°
Reaches altitude 10° 19:43:15 10° 195° (SSW) 2,301 5.8 -22.0°
Maximum altitude 19:47:45 33° 258° (WSW) 1,267 4.7 -23.1°
Drops below altitude 10° 19:52:16 10° 321° (NW) 2,292 5.8 -24.2°
Sets 19:54:46 0° 331° (NNW) 3,215 6.5 -24.8°
